Weather History for Port Aransas, TX

Change the Weather History Date:

Monday, October 14, 2013

  Actual Average (KCRP) Record (KCRP)
Temperature  
Mean Temperature 82 °F 75 °F  
Max Temperature 86 °F 85 °F 93 °F (1925)
Min Temperature 78 °F 65 °F 51 °F (1969)
Degree Days  
Heating Degree Days 0 0  
Month to date heating degree days 0  
Since 1 July heating degree days 0  
Cooling Degree Days 16 10  
Month to date cooling degree days 164  
Year to date cooling degree days 3207  
Growing Degree Days 32 (Base 50)    
Moisture  
Dew Point 72 °F    
Average Humidity 73    
Maximum Humidity 89    
Minimum Humidity 63    
Precipitation  
Precipitation 0.00 in 0.11 in 1.65 in (1923)
Month to date precipitation 1.67  
Year to date precipitation 25.99  
Snow  
Snow 0.00 in - - ()
Month to date snowfall  
Since 1 July snowfall  
Since 1 September snowfall  
Snow Depth -    
Sea Level Pressure  
Sea Level Pressure 29.99 in    
Wind  
Wind Speed 12 mph (SE)    
Max Wind Speed 16 mph    
Max Gust Speed 24 mph    
Visibility 10 miles    
Events Rain    
T = Trace of Precipitation, MM = Missing Value Source: NWS Daily Summary

Daily Weather History Graph

Daily Weather History Graph

Search for Another Location

Airport:

Trip Planner

Search our weather history database for the weather conditions in past years. The results will help you decide how hot, cold, wet, or windy it might be!

Date:

Astronomy

Oct. 14, 2013 Rise Set
Actual Time 7:28 AM CDT 6:59 PM CDT
Civil Twilight 7:04 AM CDT 7:23 PM CDT
Nautical Twilight 6:37 AM CDT 7:50 PM CDT
Astronomical Twilight 6:10 AM CDT 8:17 PM CDT
Moon 4:11 PM CDT (10/14) 3:08 AM CDT (10/14)
Length of Visible Light 12h 18m
Length of Day
11h 31m
Waxing Gibbous, 79% of the Moon is Illuminated
Oct 14
Waxing Gibbous
Oct 18
Full
Oct 26
Last Quarter
Nov 3
New
Nov 9
First Quarter

Hourly Weather History & Observations

Time (CDT) Temp. Heat Index Dew Point Humidity Pressure Visibility Wind Dir Wind Speed Gust Speed Precip Events Conditions
12:15 AM 78.8 °F - 74.8 °F 88% 30.05 in 10.0 mi ESE 10.4 mph - N/A   Scattered Clouds
12:35 AM 79.2 °F - 75.2 °F 88% 30.05 in 10.0 mi ESE 10.4 mph - N/A   Mostly Cloudy
12:55 AM 79.3 °F - 75.4 °F 88% 30.05 in 10.0 mi East 8.1 mph - N/A   Overcast
1:15 AM 79.2 °F - 75.6 °F 89% 30.04 in 10.0 mi ESE 8.1 mph - N/A   Mostly Cloudy
1:35 AM 79.2 °F - 75.6 °F 89% 30.04 in 10.0 mi ESE 8.1 mph - N/A   Scattered Clouds
1:55 AM 79.7 °F - 74.7 °F 84% 30.04 in 10.0 mi SE 6.9 mph - N/A   Scattered Clouds
2:15 AM 79.7 °F - 73.4 °F 81% 30.04 in 10.0 mi SE 9.2 mph - N/A   Clear
2:35 AM 79.7 °F - 73.8 °F 82% 30.04 in 10.0 mi SSE 8.1 mph - N/A   Mostly Cloudy
2:55 AM 79.7 °F - 73.6 °F 81% 30.03 in 10.0 mi SE 8.1 mph - N/A   Scattered Clouds
3:15 AM 79.7 °F - 73.6 °F 81% 30.01 in 10.0 mi SE 11.5 mph 16.1 mph N/A Rain Light Rain
3:35 AM 79.3 °F - 73.0 °F 81% 30.01 in 10.0 mi SSE 11.5 mph - N/A   Scattered Clouds
3:55 AM 79.7 °F - 72.9 °F 80% 30.00 in 10.0 mi SE 11.5 mph 16.1 mph N/A   Clear
4:15 AM 79.7 °F - 72.9 °F 80% 29.99 in 10.0 mi SE 11.5 mph - N/A   Clear
4:35 AM 79.3 °F - 73.4 °F 82% 29.99 in 10.0 mi SE 12.7 mph 18.4 mph N/A   Scattered Clouds
4:55 AM 79.7 °F - 73.4 °F 81% 29.99 in 10.0 mi SSE 12.7 mph - N/A   Scattered Clouds
5:15 AM 79.7 °F - 73.4 °F 81% 29.99 in 10.0 mi SSE 12.7 mph - N/A   Scattered Clouds
5:35 AM 79.7 °F - 72.9 °F 80% 29.99 in 10.0 mi SSE 13.8 mph - N/A   Scattered Clouds
5:55 AM 79.7 °F - 73.0 °F 80% 30.00 in 10.0 mi SSE 10.4 mph - N/A   Mostly Cloudy
6:15 AM 79.9 °F - 72.9 °F 79% 30.00 in 10.0 mi SSE 15.0 mph 19.6 mph N/A   Mostly Cloudy
6:35 AM 79.7 °F - 72.0 °F 77% 30.01 in 10.0 mi SSE 11.5 mph - N/A   Scattered Clouds
6:55 AM 79.9 °F - 72.0 °F 77% 30.01 in 10.0 mi SSE 11.5 mph - N/A   Scattered Clouds
7:15 AM 79.7 °F - 72.9 °F 80% 30.02 in 10.0 mi SSE 9.2 mph 16.1 mph N/A   Scattered Clouds
7:35 AM 79.9 °F - 72.3 °F 78% 30.03 in 10.0 mi SE 12.7 mph 18.4 mph N/A   Overcast
7:55 AM 79.9 °F - 71.6 °F 76% 30.03 in 10.0 mi SE 10.4 mph - N/A   Mostly Cloudy
8:15 AM 80.1 °F 83.7 °F 71.6 °F 75% 30.03 in 10.0 mi SE 12.7 mph 17.3 mph N/A   Overcast
8:35 AM 80.2 °F 84.2 °F 72.0 °F 76% 30.04 in 10.0 mi SE 11.5 mph - N/A   Mostly Cloudy
8:55 AM 80.6 °F 84.6 °F 71.8 °F 74% 30.04 in 10.0 mi SE 10.4 mph - N/A   Scattered Clouds
9:15 AM 81.0 °F 84.7 °F 70.9 °F 71% 30.04 in 10.0 mi SE 12.7 mph - N/A   Scattered Clouds
9:35 AM 81.0 °F 84.9 °F 71.1 °F 72% 30.04 in 10.0 mi SSE 11.5 mph - N/A   Clear
9:55 AM 82.8 °F 87.2 °F 70.7 °F 67% 30.04 in 10.0 mi SE 15.0 mph - N/A   Clear
10:15 AM 83.7 °F 88.3 °F 70.7 °F 65% 30.04 in 10.0 mi SSE 15.0 mph 20.7 mph N/A   Clear
10:35 AM 84.2 °F 89.0 °F 70.9 °F 64% 30.04 in 10.0 mi SSE 13.8 mph 19.6 mph N/A   Clear
10:55 AM 84.7 °F 90.4 °F 71.8 °F 65% 30.04 in 10.0 mi SSE 15.0 mph 20.7 mph N/A   Clear
11:15 AM 85.3 °F 91.8 °F 72.9 °F 66% 30.04 in 10.0 mi SSE 15.0 mph 20.7 mph N/A   Clear
11:35 AM 84.0 °F 90.2 °F 72.7 °F 69% 30.04 in 10.0 mi SSE 13.8 mph 17.3 mph N/A   Scattered Clouds
11:55 AM 85.1 °F 91.1 °F 72.3 °F 65% 30.03 in 10.0 mi SSE 13.8 mph 20.7 mph N/A   Scattered Clouds
12:15 PM 84.9 °F 91.1 °F 72.5 °F 66% 30.02 in 10.0 mi SSE 13.8 mph 20.7 mph N/A   Scattered Clouds
12:35 PM 84.6 °F 90.7 °F 72.5 °F 67% 30.01 in 10.0 mi SSE 16.1 mph 20.7 mph N/A   Scattered Clouds
12:55 PM 84.9 °F 91.4 °F 72.7 °F 67% 30.00 in 10.0 mi SSE 15.0 mph 20.7 mph N/A   Scattered Clouds
1:15 PM 84.9 °F 91.4 °F 72.7 °F 67% 30.00 in 10.0 mi SSE 11.5 mph 19.6 mph N/A   Scattered Clouds
1:35 PM 85.3 °F 91.5 °F 72.1 °F 65% 29.98 in 10.0 mi SSE 15.0 mph 20.7 mph N/A   Mostly Cloudy
1:55 PM 85.6 °F 92.2 °F 72.9 °F 65% 29.97 in 10.0 mi SSE 13.8 mph 20.7 mph N/A   Scattered Clouds
2:15 PM 85.1 °F 91.1 °F 72.0 °F 65% 29.97 in 10.0 mi SSE 13.8 mph 19.6 mph N/A   Scattered Clouds
2:35 PM 84.9 °F 90.7 °F 71.8 °F 65% 29.96 in 10.0 mi SSE 11.5 mph 19.6 mph N/A   Mostly Cloudy
2:55 PM 85.5 °F 91.8 °F 72.5 °F 65% 29.96 in 10.0 mi SSE 12.7 mph 18.4 mph N/A   Scattered Clouds
3:15 PM 84.2 °F 89.3 °F 71.2 °F 65% 29.95 in 10.0 mi SSE 11.5 mph 18.4 mph N/A   Mostly Cloudy
3:35 PM 83.7 °F 88.3 °F 70.9 °F 65% 29.95 in 10.0 mi SSE 13.8 mph - N/A   Scattered Clouds
3:55 PM 83.3 °F 87.9 °F 70.7 °F 66% 29.94 in 10.0 mi SE 13.8 mph 19.6 mph N/A   Scattered Clouds
4:15 PM 84.7 °F 89.7 °F 70.9 °F 63% 29.94 in 10.0 mi SSE 15.0 mph 18.4 mph N/A   Scattered Clouds
4:35 PM 84.9 °F 90.1 °F 71.1 °F 63% 29.93 in 10.0 mi SSE 12.7 mph 16.1 mph N/A   Clear
4:55 PM 84.0 °F 89.6 °F 72.1 °F 67% 29.93 in 10.0 mi SE 13.8 mph 20.7 mph N/A   Clear
5:15 PM 83.3 °F 87.9 °F 70.7 °F 66% 29.93 in 10.0 mi SE 15.0 mph 19.6 mph N/A   Clear
5:35 PM 83.1 °F 88.1 °F 71.6 °F 68% 29.93 in 10.0 mi SSE 12.7 mph 18.4 mph N/A   Scattered Clouds
5:55 PM 82.4 °F 86.7 °F 70.9 °F 68% 29.93 in 10.0 mi SE 12.7 mph - N/A   Scattered Clouds
6:15 PM 81.7 °F 85.6 °F 70.7 °F 69% 29.93 in 10.0 mi SSE 12.7 mph 20.7 mph N/A   Clear
6:35 PM 81.3 °F 85.2 °F 70.5 °F 70% 29.93 in 10.0 mi SSE 12.7 mph 18.4 mph N/A   Clear
6:55 PM 80.8 °F 84.4 °F 70.7 °F 71% 29.93 in 10.0 mi SE 11.5 mph - N/A   Clear
7:15 PM 80.8 °F 84.1 °F 69.6 °F 69% 29.93 in 10.0 mi SE 15.0 mph 21.9 mph N/A   Clear
7:35 PM 80.6 °F 83.6 °F 69.3 °F 68% 29.93 in 10.0 mi SE 15.0 mph 23.0 mph N/A   Clear
7:55 PM 80.6 °F 83.6 °F 69.3 °F 68% 29.93 in 10.0 mi SE 15.0 mph 23.0 mph N/A   Clear
8:15 PM 80.4 °F 83.6 °F 69.8 °F 70% 29.94 in 10.0 mi SE 15.0 mph 24.2 mph N/A   Clear
8:35 PM 80.2 °F 83.6 °F 70.5 °F 72% 29.95 in 10.0 mi SSE 15.0 mph 20.7 mph N/A   Clear
8:55 PM 80.1 °F 83.2 °F 69.8 °F 71% 29.96 in 10.0 mi SE 15.0 mph 20.7 mph N/A   Clear
9:15 PM 80.2 °F 83.6 °F 70.5 °F 72% 29.96 in 10.0 mi SE 13.8 mph 20.7 mph N/A   Clear
9:35 PM 79.9 °F - 70.9 °F 74% 29.97 in 10.0 mi SSE 13.8 mph 19.6 mph N/A   Scattered Clouds
9:55 PM 79.9 °F - 70.9 °F 74% 29.97 in 10.0 mi SSE 12.7 mph 18.4 mph N/A   Scattered Clouds
10:15 PM 79.9 °F - 71.2 °F 75% 29.97 in 10.0 mi SE 15.0 mph 19.6 mph N/A   Scattered Clouds
10:35 PM 79.9 °F - 71.4 °F 75% 29.97 in 10.0 mi SSE 13.8 mph 20.7 mph N/A   Scattered Clouds
10:55 PM 79.9 °F - 70.9 °F 74% 29.97 in 10.0 mi SSE 16.1 mph - N/A   Scattered Clouds
11:15 PM 79.7 °F - 70.7 °F 74% 29.97 in 10.0 mi SE 12.7 mph 20.7 mph N/A   Clear
11:35 PM 79.7 °F - 70.9 °F 74% 29.96 in 10.0 mi SSE 13.8 mph 20.7 mph N/A   Scattered Clouds
11:55 PM 79.9 °F - 70.7 °F 73% 29.96 in 10.0 mi SSE 12.7 mph 20.7 mph N/A   Scattered Clouds